Weather in Vinkovci

Croatia     45°17′31″N   18°47′27″E
В апреле 2022 года жителям России запретили посещать сайт meteo.paraplan.net по решению Генеральной прокуратуры. Аудитория сайта уменьшилась в 10 раз. Владельцы сайта не видят смысла в поддержке погодного сервера в таких условиях. Сайт будет закрыт в октябре.
temp.,
°C
wind,
m/s
gust,
m/s
humid.,
%
clouds,
%
prec.,
mm/h
press.,
hPa
HPBL,
m
29 september, thu
thu2923:00+15se3685100 0.0 1002114
02:00+15s3683100 0.0 1002115
05:00+14s3375100 0.0 100132
08:00+15s357468 0.0 1002124
11:00+22ssw46525 0.0 1003677
14:00+25sw364069 0.0 10022382
17:00+23se135482 0.2 1002115
20:00+18se22708 0.3 100416
30 september, fri
fri3023:00+16s227198 0.0 100520
02:00+15ssw3579100 0.4 1007103
05:00+16sse2386100 0.9 100756
08:00+16sse2484100 1.0 1009112
11:00+22s3560100 0.0 1010447
14:00+25sw4745100 0.0 10111850
17:00+24s2353100 0.0 101268
20:00+19sw3464100 0.0 101448
1 october, sat
sat123:00+18ssw2267100 0.0 101513
02:00+17sse2365100 0.0 101632
05:00+17s3366100 0.0 101552
08:00+17ssw246996 0.0 101694
11:00+23sw3654100 0.0 1016452
14:00+25ssw5744100 0.0 10141174
17:00+23s3857100 0.0 1011380
20:00+19w346888 0.1 101267
2 october, sun
sun223:00+19w41271100 0.9 1012479
02:00+15nnw71377100 1.8 1017798
05:00+14nnw6137295 0.0 1020983
08:00+14nw612720 0.0 10221079
11:00+18nw8125171 0.0 10231771
14:00+20nnw8124119 0.0 10222317
17:00+19nw510485 0.0 10221786
20:00+14wnw22650 0.0 102322
3 october, mon
mon323:00+13wsw22685 0.0 102211
02:00+12sw33745 0.0 102135
05:00+13w2363100 0.0 102376
08:00+13sw236597 0.0 1022123
11:00+18wsw235199 0.0 1022879
14:00+20w34418 0.0 10191740
17:00+20w234698 0.0 1017124
20:00+14n3883100 0.9 1019210